METEOR 2-5 DEB, 29292

Orbit data source: Space-Track

METEOR 2-5 DEB, 29292 is space debris in LEO originally from a launch on Wed, 31 Oct 1979 UTC launched from the Plesetsk Missile And Space Complex (PKMTR). Debris objects in space refer to the collection of defunct objects orbiting the Earth. Examples of debris include non-operational satellites, rocket bodies, and fragments generated from explosions, collisions, or faulty payload assembly.

Loading next visibility...
Identifier
29292, 1979-095R
Orbit
LEO
Country
Flag of CISCIS
Related business
Manufacturer
Unknown
Mission
Spacecraft
Bus & Motor
Unknown
Mass
Unknown
Launch date (UTC)
1979-10-31 (46 years ago)
Launch vehicle
Unknown
Launch site
Plesetsk Missile And Space Complex (PKMTR)
Object type
Payload
Rocket body
Debris
Shape & HBR
Unknown shape, 0.1 m
Radar Cross Section
Small (<0.1 m²)

Expand to show TLE details & history
Last TLE update: 2 days ago

TLE from 2 days ago
0 METEOR 2-5 DEB
1 29292U 79095R   25292.36268011  .00012504  00000-0  36302-2 0  9999
2 29292  81.1817 318.0568 0010494 114.8720 245.3562 14.44248175 81729
Epoch: 2025-10-19T08:42Z
TLE epoch observation values (Epoch: 2025-10-19T08:42:15.561Z)
Latitude
0.00001°
Longitude
159.41154°
Altitude
750.565 km
Speed
7.478 km/s
True Right ascension
21h 12m 13s
True Declination
0° 00' 00"
Sunlit
Object was in daylight at epoch
Visualization orbit readout
Latitude
Unknown
Longitude
Unknown
Altitude
Unknown
Speed
Unknown
Apparent Right ascension
Unknown
Apparent Declination
Unknown
Sunlit
N/A
Visualization observer readout
Local Sidereal Time
01:14:28
Azimuth
Unknown
Elevation
Unknown
Doppler factor
Unknown
Orbital elements
Apogee altitude
749.1 km
Perigee altitude
734.157 km
Semi-major axis
7,119.765 km
Eccentricity
0.00105
Inclination
81.1817°
RAAN
318.0568°
Arg. of periapsis
114.872°
True anomaly
245.24696°
Mean anomaly
245.3562°
Eccentric anomaly
245.30157°
Mean motion
3.61281 °/min
Orbital period
99.65 mins
BSTAR
0.0036302
Loading maneuver chart data...
Computing Atmospheric mass density...

Documentation

Showing up to 5 results
|